Retour au catalogue

STARLINK-2439

ActifCommunicationsVLEO
NORAD 48104·PAYLOAD·🇺🇸 United States

Lancé Apr 7, 2021 depuis Cape Canaveral Space Force Station

Loading…

Prochains Passages (prochaines 24 heures)

TLE

FraisSource: CelesTrak SupGP

Époque: Sep 15, 2026, 01:58 UTC

1 48104C 21027N   26258.08243056  .00041904  00000+0  13474-2 0  2586
2 48104  53.1588 351.3926 0001229  93.5003 184.7318 15.31685076    17

Suivez STARLINK-2439 en temps réel avec AllMySat

Download on the App Store